TimeCDT,TemperatureF,Dew PointF,Humidity,Sea Level PressureIn,VisibilityMPH,Wind Direction,Wind SpeedMPH,Gust SpeedMPH,PrecipitationIn,Events,Conditions,WindDirDegrees,DateUTC
12:10 AM,71.6,69.8,94,29.87,7.0,NNW,3.5,-,N/A,,Overcast,330,2013-10-07 05:10:00
12:43 AM,71.6,69.8,94,29.86,1.8,Calm,Calm,-,N/A,,Overcast,0,2013-10-07 05:43:00
12:52 AM,71.6,69.8,94,29.86,0.8,Calm,Calm,-,N/A,,Overcast,0,2013-10-07 05:52:00
12:58 AM,71.1,70.0,96,29.84,0.8,NW,3.5,-,N/A,,Mist,320,2013-10-07 05:58:00
1:15 AM,71.6,69.8,94,29.85,1.0,Calm,Calm,-,N/A,,Mist,0,2013-10-07 06:15:00
1:29 AM,71.6,69.8,94,29.85,0.8,Calm,Calm,-,N/A,,Overcast,0,2013-10-07 06:29:00
1:58 AM,71.1,70.0,96,29.83,1.0,Calm,Calm,-,N/A,,Mist,0,2013-10-07 06:58:00
2:38 AM,71.6,69.8,94,29.84,2.0,NNW,4.6,-,N/A,,Overcast,340,2013-10-07 07:38:00
2:47 AM,71.6,69.8,94,29.83,3.0,Variable,6.9,-,0.00,Rain,Light Rain,0,2013-10-07 07:47:00
2:58 AM,69.1,68.0,96,29.82,5.0,Variable,4.6,-,0.00,Rain,Light Rain,0,2013-10-07 07:58:00
3:49 AM,64.4,62.6,94,29.77,10.0,NNW,10.4,19.6,0.00,,Overcast,340,2013-10-07 08:49:00
3:58 AM,63.0,62.1,97,29.73,10.0,North,11.5,18.4,0.00,,Overcast,350,2013-10-07 08:58:00
4:49 AM,62.6,60.8,94,-9999,10.0,North,8.1,-,N/A,,Overcast,350,2013-10-07 09:49:00
4:58 AM,63.0,61.0,93,-9999,10.0,Variable,6.9,-,N/A,,Overcast,0,2013-10-07 09:58:00
5:37 AM,62.6,60.8,94,-9999,10.0,North,8.1,-,N/A,,Overcast,360,2013-10-07 10:37:00
5:58 AM,62.1,60.1,93,-9999,10.0,Variable,5.8,-,N/A,,Overcast,0,2013-10-07 10:58:00
6:58 AM,63.0,60.1,90,-9999,10.0,North,6.9,-,N/A,,Overcast,360,2013-10-07 11:58:00
7:02 AM,62.6,60.8,94,-9999,10.0,North,6.9,-,N/A,,Overcast,10,2013-10-07 12:02:00
7:33 AM,64.4,60.8,88,-9999,10.0,North,8.1,-,N/A,,Mostly Cloudy,360,2013-10-07 12:33:00
7:54 AM,64.4,60.8,88,-9999,10.0,North,9.2,-,N/A,,Overcast,360,2013-10-07 12:54:00
7:58 AM,64.0,59.0,84,-9999,10.0,Variable,6.9,16.1,N/A,,Overcast,0,2013-10-07 12:58:00
8:12 AM,64.4,59.0,83,-9999,10.0,North,8.1,-,N/A,,Overcast,10,2013-10-07 13:12:00
8:58 AM,66.0,59.0,78,-9999,10.0,North,8.1,-,N/A,,Partly Cloudy,350,2013-10-07 13:58:00
9:58 AM,69.1,59.0,70,-9999,10.0,North,10.4,-,N/A,,Mostly Cloudy,10,2013-10-07 14:58:00
10:58 AM,73.0,60.1,64,-9999,10.0,North,6.9,-,N/A,,Clear,360,2013-10-07 15:58:00
11:58 AM,73.0,60.1,64,-9999,10.0,North,10.4,16.1,N/A,,Clear,10,2013-10-07 16:58:00
12:58 PM,75.9,61.0,60,-9999,10.0,North,6.9,-,N/A,,Clear,10,2013-10-07 17:58:00
1:58 PM,79.0,63.0,58,-9999,10.0,North,8.1,-,N/A,,Clear,360,2013-10-07 18:58:00
2:58 PM,79.0,61.0,54,-9999,10.0,North,6.9,-,N/A,,Clear,360,2013-10-07 19:58:00
3:58 PM,77.0,57.9,52,-9999,10.0,North,9.2,-,N/A,,Clear,350,2013-10-07 20:58:00
4:58 PM,75.9,57.9,54,-9999,10.0,Variable,5.8,-,N/A,,Clear,0,2013-10-07 21:58:00
5:58 PM,72.0,57.9,61,-9999,10.0,North,4.6,-,N/A,,Clear,350,2013-10-07 22:58:00
6:58 PM,68.0,57.0,68,-9999,10.0,NNW,3.5,-,N/A,,Clear,340,2013-10-07 23:58:00
7:58 PM,66.0,57.0,73,-9999,10.0,Calm,Calm,-,N/A,,Clear,0,2013-10-08 00:58:00
8:58 PM,64.0,57.0,78,-9999,10.0,NNW,3.5,-,N/A,,Clear,340,2013-10-08 01:58:00
9:58 PM,63.0,55.9,78,-9999,10.0,Variable,3.5,-,N/A,,Mostly Cloudy,0,2013-10-08 02:58:00
10:58 PM,62.1,55.9,80,-9999,10.0,North,3.5,-,N/A,,Mostly Cloudy,350,2013-10-08 03:58:00
11:58 PM,61.0,55.9,83,-9999,10.0,NNW,3.5,-,N/A,,Clear,340,2013-10-08 04:58:00